Regional Weather Roundup
Issued by NWS

Home | Current Version | Previous Version | Text Only | Print | Product List | Glossary On
Versions: 1 2 3 4 5 6 7 8 9 10 11 12 13 14 15 16 17 18 19 20 21 22 23 24 25 26 27 28
000
ASUS42 KKEY 200410
RWRKEY

FLORIDA REGIONAL WEATHER ROUNDUP FOR THE FLORIDA KEYS
NATIONAL WEATHER SERVICE KEY WEST FLORIDA
1200 AM EDT SUN APR 20 2014

...SOUTH FLORIDA AND THE KEYS...

CITY           SKY/WX    TMP DP  RH WIND       PRES   REMARKS
FORT MYERS     CLOUDY    68  57  68 NW13      30.01R
SW REGIONAL AP CLOUDY    67  57  70 W8G17     30.01R
NAPLES         CLOUDY    70  60  70 W12G18    30.02R
MIAMI          PTCLDY    69  61  75 W8        30.01S
WEST KENDALL   CLEAR     66  62  87 NW6       30.01S
HOMESTEAD      PTCLDY    68  62  79 NW8       30.02R
MARATHON       PTCLDY    74  62  66 W12       30.03R
BOCA CHICA NAS PTCLDY    73  62  68 NW10      30.03S
KEY WEST INTL  MOCLDY    74  64  71 NW13      30.04S

...INTERNATIONAL WEATHER...

CITY           SKY/WX    TMP DP  RH WIND       PRES   REMARKS
NASSAU BAHAMAS PTCLDY    77  73  88 S7        29.99R
CANCUN MEXICO  PTCLDY    73  70  88 N5        30.05R
COZUMEL MEXICO PTCLDY    73  72  94 NE6       30.03S

ADJACENT COASTAL WATERS...

STATION/POSITION TIME  SKY/WX   TEMP    WIND        PRES    WAVE
                                AIR SEA DIR/SP/G            HT/PER
                 (UTC)          (F)     (DEG/KT/KT) (MB)    (FT/S)
PULASKI SHOAL LI NOT AVBL
SAND KEY         NOT AVBL
SOMBRERO KEY     0400            74     310/ 16/ 17 1017.3S
LONG KEY         0400            74 81  310/ 18/ 20 1017.3S
MOLASSES REEF    0400            74 78  310/ 17/ 19 1016.0F
FOWEY ROCKS      0400            71 78  290/ 19/ 20 1016.1R
Buoy 42080       NOT AVBL

$$



USA.gov is the U.S. government's official web portal to all federal, state and local government web resources and services.